Temperature
16 16 16 16 16 16 16 15 15 15 14 15 15 15 15 15 15 15 15 14 14 14 14 14 14 14 14 14 14 14 14 13 13 13 13 13 13 13
16 16 16 16 16 16 15 15 15 15 14 14 14 14 14 14 14 14 14 14 14 14 14 14 14 14 14 13 13 13 13 13 13 13 13 13 13 12
16 16 15 15 15 15 15 15 15 15 14 14 14 14 14 14 14 14 14 13 13 13 13 13 13 13 13 13 13 13 13 13 13 13 13 12 12 12
15 15 15 15 15 15 15 15 15 14 14 14 14 13 13 13 13 13 13 13 13 13 13 13 12 12 12 12 12 12 12 12 12 12 12 12 12 12
15 15 15 15 15 15 14 14 14 14 14 14 13 13 13 13 13 13 12 12 12 12 12 12 12 12 12 12 12 12 12 12 12 12 12 11 11 11
15 15 15 14 14 14 14 14 14 14 14 13 13 13 13 12 12 12 12 12 12 12 12 12 12 11 11 11 11 11 11 11 11 11 11 11 11 11
15 14 14 14 14 14 14 14 13 13 13 13 13 12 12 12 12 12 12 12 11 11 11 11 11 11 11 11 11 11 11 11 11 11 10 10 10 10
14 14 14 14 13 13 13 13 13 13 13 13 12 12 12 12 12 12 12 11 11 11 11 11 11 11 11 10 10 10 10 10 10 10 10 10 10 10
14 14 14 13 13 13 13 13 13 12 12 12 12 12 12 12 12 12 11 11 11 11 11 11 10 10 10 10 10 10 10 10 10 10 9 9 9 9
13 13 13 13 13 13 13 12 12 12 12 12 12 12 11 11 11 11 11 11 11 10 10 10 10 10 10 10 10 10 10 9 9 9 9 9 9 9
13 13 13 13 12 12 12 12 12 12 11 11 11 11 11 11 11 11 10 10 10 10 10 10 10 10 10 10 10 9 9 9 9 9 9 9 8 8
13 13 12 12 12 12 12 12 12 11 11 11 11 11 11 11 10 10 10 10 10 10 9 9 9 9 9 9 9 9 9 9 9 9 9 8 8 8
12 12 12 12 12 12 11 11 11 11 11 11 11 11 10 10 10 10 10 10 10 9 9 9 9 9 9 9 9 9 9 9 9 8 8 8 8 8
12 12 12 11 11 11 11 11 11 11 11 10 10 10 10 10 10 10 10 9 9 9 9 9 9 9 9 9 8 9 9 9 8 8 8 8 8 7
12 11 11 11 11 11 11 11 11 10 10 10 10 10 10 10 10 9 9 9 9 9 9 9 9 9 9 8 8 8 8 8 8 8 8 8 7 7
11 11 11 11 11 11 10 10 10 10 10 10 10 10 9 9 9 9 9 9 9 9 9 9 8 8 8 8 8 8 8 8 8 8 8 7 7 7
11 11 11 11 10 10 10 10 10 10 10 10 9 9 9 9 9 9 9 9 9 8 8 8 8 8 8 8 8 8 8 8 8 7 7 7 7 7
11 11 11 10 10 10 10 10 10 10 9 9 9 9 9 9 9 8 8 8 8 8 8 8 8 8 8 8 8 7 7 7 7 7 7 7 7 7
11 11 11 10 10 10 10 10 10 9 9 9 9 9 9 9 8 8 8 8 8 8 8 8 7 7 7 7 7 7 7 7 7 7 7 7 7 7
11 11 11 10 10 10 10 10 9 9 9 9 9 9 9 8 8 8 8 8 8 7 7 7 7 7 7 7 7 7 7 7 7 6 7 6 6 6
11 11 10 10 10 10 10 9 9 9 9 9 9 8 8 8 8 8 8 8 7 7 7 7 7 7 7 7 7 7 7 6 6 6 6 6 6 6
11 10 10 10 10 10 9 9 9 9 9 9 9 8 8 8 8 8 8 7 7 7 7 7 7 7 7 7 6 6 6 6 6 6 6 6 6 5
11 10 10 10 10 10 9 9 9 9 9 9 8 8 8 8 8 8 7 7 7 7 7 7 7 7 7 6 6 6 6 6 6 6 6 6 6 5
Wind_Speed
2 2 2 2 2 2 2 3 3 2 2 1 1 1 1 0 1 2 2 3 3 4 4 3 3 3 2 2 1 2 2 2 2 2 3 3 2 3
0 1 1 1 1 1 2 2 2 3 2 1 1 1 1 1 1 1 1 2 3 3 3 3 3 4 4 3 3 3 3 3 2 1 2 2 2 2
0 1 0 1 1 1 1 1 2 2 2 1 1 1 1 1 2 3 3 3 3 3 3 3 4 4 4 4 3 3 4 5 5 4 4 4 3 3
0 0 0 1 1 1 1 1 1 2 2 1 0 1 1 1 2 3 3 4 4 5 5 5 5 5 5 5 5 5 5 5 5 6 5 5 5 6
1 1 1 1 1 1 1 1 1 2 2 2 1 0 1 2 2 3 3 2 3 4 5 5 5 5 5 4 4 5 5 5 5 6 5 6 6 5
1 2 1 1 1 1 1 1 2 2 2 2 2 1 1 1 2 2 2 1 1 3 3 4 4 4 4 4 4 4 4 5 5 5 5 5 5 5
2 2 2 2 2 2 2 2 2 2 2 2 2 1 1 1 1 1 1 1 1 1 1 2 2 2 1 1 2 3 3 4 4 4 5 5 5 6
1 2 2 3 3 4 4 3 3 3 3 2 2 2 1 1 1 1 1 1 0 1 1 1 1 1 1 1 1 3 4 4 5 5 5 5 5 5
1 2 2 3 3 3 4 5 4 3 2 3 3 2 2 1 2 2 1 1 1 0 1 1 1 1 1 1 1 3 4 4 5 5 5 5 4 4
2 2 2 2 2 3 4 4 3 3 2 1 1 1 1 1 2 2 2 2 1 1 1 0 0 1 1 1 0 2 3 4 5 5 5 5 4 4
1 2 2 1 2 4 4 3 2 2 3 4 3 3 3 4 4 3 3 2 1 1 1 0 0 0 1 1 1 1 3 4 4 5 5 5 5 5
1 1 1 2 2 4 3 3 2 1 1 2 3 4 3 3 4 2 3 2 1 0 0 0 0 0 0 0 1 1 1 3 4 5 5 6 6 4
1 0 0 1 3 4 3 2 2 2 1 2 2 2 2 1 1 1 1 2 2 1 1 2 1 1 1 1 1 1 1 1 2 3 4 5 6 5
2 2 1 2 3 3 2 2 3 3 2 2 2 1 1 1 1 0 1 2 1 2 3 3 1 2 1 1 1 1 2 2 2 2 3 4 5 7
2 3 3 3 3 2 2 2 3 2 2 2 1 0 1 1 0 0 0 0 1 1 1 3 2 2 2 2 2 1 1 2 2 2 2 3 3 3
2 2 3 3 2 2 1 1 1 1 2 2 1 0 0 0 0 0 0 0 0 1 2 0 2 2 2 2 2 2 2 2 2 3 3 3 3 4
3 2 2 2 1 1 1 1 1 1 1 1 1 1 0 0 0 0 0 0 0 1 2 2 2 1 2 2 2 2 2 2 2 2 2 2 3 4
5 3 3 3 3 3 2 1 1 1 2 1 1 1 1 1 1 0 0 1 1 1 1 1 1 1 1 1 2 2 2 3 2 2 2 2 3 3
4 4 4 4 4 3 3 3 2 2 2 2 2 2 2 2 1 1 1 1 1 1 1 1 1 0 2 3 2 3 3 3 2 2 2 3 3 3
4 4 4 4 4 4 3 3 3 2 2 2 2 2 2 2 2 2 2 2 2 2 1 1 1 2 3 3 2 2 4 3 3 3 2 2 3 4
5 5 5 5 4 4 4 4 4 3 3 3 3 3 2 2 2 3 3 3 2 2 3 3 3 3 2 1 1 2 2 4 5 3 2 2 2 2
5 5 5 5 5 4 4 4 4 4 4 3 3 3 3 3 3 3 3 3 3 3 3 3 1 1 1 2 3 4 3 3 3 4 5 4 2 3
5 5 5 5 5 4 4 5 5 4 4 4 4 3 3 3 3 3 3 3 3 3 2 2 1 1 2 3 3 3 3 3 2 2 2 4 6 7
Wind_Direction
219 211 211 226 214 212 201 193 194 232 271 270 277 318 306 227 193 170 172 154 157 155 152 148 132 111 99 104 151 169 158 166 178 200 222 231 221 226
207 176 192 211 200 182 186 195 199 202 235 269 263 315 339 43 71 122 131 118 115 131 134 133 127 123 118 122 136 145 139 132 124 154 202 201 174 157
43 131 199 159 153 154 154 156 166 169 209 273 292 338 11 42 51 75 80 83 79 92 108 114 118 118 113 105 101 108 109 104 101 98 93 97 112 115
20 80 3 101 99 110 133 139 159 171 173 202 319 15 27 51 61 76 83 86 80 75 87 94 104 111 109 104 99 98 97 96 96 94 90 91 99 104
73 76 45 82 87 86 109 124 134 127 141 153 155 43 57 74 69 75 75 73 79 75 83 90 100 113 112 108 103 104 105 106 103 101 98 94 95 99
73 69 56 93 141 141 129 126 121 111 117 129 120 92 77 69 84 92 75 58 58 63 71 79 88 103 108 109 108 112 114 115 113 110 105 99 97 96
64 51 53 69 84 106 120 130 131 126 122 126 124 110 109 104 111 139 140 100 50 53 63 52 68 73 80 116 135 142 137 134 130 126 119 113 108 105
74 47 48 51 65 76 86 98 117 138 151 152 156 159 179 181 158 152 147 120 90 24 101 41 62 51 33 78 126 145 150 148 148 147 140 133 128 124
94 70 61 53 65 79 80 78 70 79 137 168 168 192 192 203 169 156 148 134 157 63 123 46 37 32 1 12 135 162 167 168 163 155 148 145 144 141
91 99 99 66 70 97 93 79 62 48 59 113 152 188 181 154 156 159 154 126 79 57 96 119 351 321 334 337 350 181 186 184 181 179 176 172 169 167
81 91 114 109 85 110 109 101 74 35 49 76 98 97 96 102 119 115 113 120 98 11 33 151 259 314 318 314 315 240 213 207 201 197 195 194 193 188
82 61 80 119 116 129 132 130 119 353 32 53 55 58 70 90 113 137 152 143 136 184 109 151 140 113 286 311 304 285 237 233 220 213 207 205 200 195
154 154 300 113 116 130 139 152 182 173 124 95 73 63 61 68 81 117 156 166 170 207 193 180 179 187 215 266 293 264 238 238 220 219 219 216 210 204
189 203 194 153 130 127 141 144 132 124 112 100 89 70 45 5 328 280 178 181 192 204 193 184 188 191 196 239 272 279 262 249 219 218 227 220 220 221
186 179 166 152 137 118 105 118 124 119 122 121 135 232 286 294 319 317 44 95 48 33 161 196 196 191 202 230 248 255 262 264 232 236 232 223 223 218
154 137 127 118 113 103 94 99 115 144 167 172 184 241 339 29 47 16 340 12 35 356 3 331 209 190 210 239 237 252 246 239 246 246 239 237 228 221
157 130 120 124 137 128 124 117 129 145 170 190 173 162 173 168 356 353 64 117 142 312 334 355 11 306 254 236 247 259 268 273 260 245 231 244 246 236
155 169 179 182 193 198 200 194 190 201 211 204 198 201 210 211 211 194 169 175 200 258 294 328 351 4 357 302 229 249 264 273 276 246 224 230 254 251
175 192 196 201 206 206 205 205 213 219 209 207 209 212 217 219 211 210 205 216 234 255 282 301 313 277 288 296 294 228 247 274 267 253 236 232 249 262
200 204 208 206 205 204 205 207 211 206 201 207 211 213 208 210 213 220 223 236 242 252 271 277 256 244 243 263 273 280 247 246 256 257 255 256 262 268
213 211 210 205 203 205 208 209 207 208 206 205 212 216 214 212 224 232 232 232 236 243 252 264 263 249 236 202 261 290 290 256 243 246 241 249 266 277
214 213 212 208 204 203 204 206 207 212 212 212 215 216 218 219 228 238 236 234 236 241 252 269 298 213 200 228 259 280 295 310 280 247 233 228 240 253
214 214 213 210 208 206 205 207 209 215 216 215 217 217 215 221 230 234 233 231 234 237 247 268 284 266 259 256 264 279 288 298 299 291 292 278 260 263
Height
1529 1529 1529 1529 1529 1529 1529 1529 1530 1529 1528 1528 1529 1529 1528 1528 1528 1528 1528 1528 1528 1528 1528 1528 1529 1529 1529 1529 1529 1530 1530 1531 1532 1532 1533 1534 1534 1534
1528 1527 1527 1526 1526 1526 1526 1526 1527 1527 1526 1526 1526 1526 1526 1525 1525 1525 1525 1526 1525 1526 1526 1526 1526 1526 1526 1527 1527 1527 1528 1528 1528 1529 1530 1531 1531 1531
1526 1525 1525 1525 1524 1524 1524 1524 1524 1524 1524 1524 1524 1524 1523 1523 1523 1523 1523 1523 1523 1523 1523 1524 1524 1524 1525 1525 1525 1525 1526 1526 1526 1527 1527 1527 1528 1528
1524 1524 1523 1523 1522 1522 1522 1521 1521 1521 1521 1521 1522 1522 1522 1521 1521 1521 1521 1521 1521 1522 1522 1522 1522 1523 1523 1523 1524 1524 1524 1525 1525 1525 1525 1525 1525 1525
1522 1522 1522 1521 1520 1520 1520 1519 1519 1519 1519 1519 1520 1520 1520 1520 1520 1520 1520 1520 1520 1520 1520 1521 1521 1521 1521 1522 1522 1523 1523 1523 1523 1523 1523 1524 1524 1524
1521 1520 1520 1520 1519 1518 1518 1518 1518 1518 1518 1518 1518 1518 1518 1518 1518 1518 1518 1518 1519 1519 1519 1520 1520 1520 1521 1521 1521 1522 1522 1522 1522 1522 1522 1522 1522 1522
1519 1519 1518 1518 1518 1517 1517 1516 1517 1516 1516 1516 1516 1516 1517 1517 1517 1517 1517 1517 1518 1518 1518 1519 1519 1519 1519 1519 1520 1520 1520 1520 1520 1520 1521 1521 1521 1521
1518 1518 1518 1517 1517 1516 1516 1516 1516 1516 1515 1515 1515 1515 1515 1516 1516 1516 1516 1516 1516 1518 1517 1517 1518 1518 1518 1518 1518 1519 1519 1518 1519 1519 1519 1519 1520 1520
1517 1517 1517 1516 1516 1516 1516 1515 1515 1515 1515 1515 1514 1514 1515 1515 1515 1515 1515 1515 1515 1516 1516 1516 1517 1517 1517 1517 1517 1517 1517 1517 1517 1517 1518 1518 1518 1518
1516 1516 1516 1516 1516 1515 1515 1515 1514 1514 1514 1514 1514 1514 1514 1514 1514 1514 1514 1514 1514 1515 1515 1515 1515 1515 1516 1516 1516 1516 1516 1516 1516 1516 1516 1516 1516 1516
1515 1515 1515 1515 1515 1515 1514 1514 1514 1514 1514 1514 1514 1514 1514 1513 1513 1513 1513 1513 1513 1513 1514 1514 1514 1514 1514 1514 1514 1514 1515 1515 1514 1514 1514 1515 1515 1515
1513 1514 1514 1514 1514 1514 1513 1513 1513 1513 1513 1513 1513 1513 1513 1513 1512 1512 1512 1512 1512 1512 1512 1512 1512 1513 1513 1513 1513 1513 1513 1513 1513 1513 1513 1513 1513 1513
1512 1512 1512 1513 1513 1512 1512 1512 1512 1512 1512 1512 1512 1512 1512 1512 1511 1511 1511 1511 1511 1511 1511 1511 1511 1511 1511 1511 1511 1511 1511 1511 1511 1510 1511 1511 1511 1511
1510 1511 1511 1511 1511 1511 1511 1511 1511 1511 1511 1511 1511 1511 1510 1510 1511 1510 1510 1510 1510 1510 1510 1510 1509 1509 1509 1509 1509 1509 1509 1509 1509 1508 1508 1509 1509 1509
1508 1508 1509 1509 1510 1509 1509 1509 1510 1510 1510 1509 1509 1509 1509 1509 1509 1509 1509 1509 1509 1508 1508 1508 1508 1507 1507 1507 1507 1506 1506 1506 1506 1506 1506 1506 1506 1506
1506 1506 1506 1507 1507 1507 1507 1507 1507 1508 1508 1508 1508 1508 1508 1508 1507 1507 1507 1507 1506 1506 1506 1506 1505 1505 1504 1504 1504 1504 1504 1503 1503 1503 1503 1503 1503 1503
1503 1504 1504 1504 1504 1505 1505 1505 1505 1506 1506 1506 1506 1506 1506 1506 1506 1506 1505 1505 1504 1504 1504 1504 1503 1503 1503 1502 1501 1501 1501 1501 1500 1500 1499 1499 1499 1499
1501 1500 1500 1501 1502 1502 1503 1502 1503 1503 1504 1504 1504 1504 1504 1504 1504 1504 1503 1503 1502 1502 1501 1501 1501 1500 1500 1500 1500 1499 1498 1498 1497 1497 1496 1496 1496 1496
1497 1497 1497 1498 1499 1499 1500 1500 1500 1501 1501 1501 1501 1501 1502 1502 1502 1501 1501 1500 1500 1500 1500 1499 1498 1498 1497 1497 1497 1497 1496 1495 1494 1494 1493 1493 1492 1493
1493 1494 1494 1495 1496 1497 1497 1497 1498 1499 1499 1499 1499 1499 1499 1499 1499 1498 1498 1498 1498 1497 1497 1497 1496 1495 1495 1495 1494 1494 1493 1492 1491 1491 1490 1490 1489 1489
1490 1491 1491 1492 1493 1493 1494 1495 1496 1496 1496 1496 1496 1496 1496 1496 1496 1495 1496 1495 1495 1495 1494 1494 1493 1493 1493 1492 1491 1491 1490 1490 1489 1488 1487 1487 1486 1485
1486 1487 1488 1489 1489 1490 1491 1492 1492 1493 1493 1493 1493 1493 1493 1493 1493 1492 1492 1492 1492 1492 1491 1491 1491 1490 1490 1489 1488 1488 1487 1487 1486 1485 1485 1484 1483 1482
1483 1484 1485 1485 1486 1487 1487 1488 1489 1489 1489 1490 1490 1490 1490 1490 1490 1489 1489 1489 1489 1489 1488 1488 1488 1487 1487 1486 1485 1485 1484 1483 1482 1482 1482 1481 1481 1480